Flag for Iran Weather past 2 weeks in Behbahan, Iran

Now
88 °F

Clear.


Feels Like: 84 °F
Forecast: 82 / 116 °F
Wind: No wind

Location: Gach Saran Du Gunbadan

Current Time: Jul 24, 2014 at 3:16:02 AM

Latest Report: Jul 24, 2014 at 2:30 AM


Visibility: 10 mi

Pressure: 29.59 "Hg

Humidity: 18%

Dew point: 39 °F

Location of BehbahanLocation

Historic Weather in Behbahan — Graph

°F

Behbahan temperature yesterday

Maximum temperature yesterday: 106 °F (at 4:30 PM)
Minimum temperature yesterday: 75 °F (at 5:30 AM)
Average temperature yesterday: 93 °F

Past Weeks' High & Low Weather Summary

 TemperatureHumidityPressure
High115 °F (Jul 17, 1:30 PM)32% (Jul 12, 5:30 AM)29.71 "Hg (Jul 12, 5:30 AM)
Low73 °F (Jul 12, 6:30 AM)4% (Jul 17, 5:30 PM)29.53 "Hg (Jul 17, 6:30 PM)
Average97 °F13%29.62 "Hg
* Reported Jul 9 1:30 AM — Jul 24 1:30 AM, Behbahan, Weather by CustomWeather, © 2014

Note: Actual official high and low records may vary slightly from our data, if they occured in-between our weather recording intervals... More about our weather records

Advertising

Behbahan weather history for July 9, 2014

 ConditionsComfort  
Time TempWeatherWind HumidityBarometerVisibility
1:30 AM
Jul 9
88 °FClear.5 mph11%29.65 "Hg10 mi
2:30 AM86 °FClear.No wind12%29.65 "Hg10 mi
3:30 AM86 °FClear.No wind12%29.65 "Hg10 mi
4:30 AM84 °FClear.No wind12%29.62 "Hg10 mi
6:30 AM75 °FClear.No wind18%29.65 "Hg10 mi
7:30 AM79 °FClear.No wind18%29.68 "Hg10 mi
8:30 AM90 °FSunny.No wind12%29.68 "Hg10 mi
9:30 AM93 °FSunny.No wind9%29.68 "Hg10 mi
10:30 AM97 °FSunny.No wind9%29.68 "Hg10 mi
11:30 AM100 °FSunny.No wind6%29.68 "Hg10 mi
12:30 PM104 °FSunny.No wind7%29.65 "Hg10 mi
1:30 PM102 °FSunny.12 mph7%29.65 "Hg10 mi
2:30 PM102 °FSunny.No wind7%29.65 "Hg10 mi
3:30 PM104 °FSunny.No wind6%29.65 "Hg10 mi
4:30 PM106 °FSunny.No wind6%29.62 "Hg10 mi
5:30 PM104 °FSunny.12 mph6%29.62 "Hg10 mi
6:30 PM102 °FSunny.No wind6%29.62 "Hg10 mi
7:30 PM100 °FSunny.14 mph5%29.62 "Hg10 mi
8:30 PM99 °FSunny.14 mph5%29.62 "Hg10 mi
9:30 PM97 °FSunny.5 mph6%29.65 "Hg10 mi
10:30 PM95 °FClear.5 mph8%29.65 "Hg10 mi
11:30 PM93 °FClear.7 mph11%29.65 "Hg10 mi
Weather by CustomWeather, © 2014

See weather overviewHow to use our weather pages